Date,TemperatureHighF,TemperatureAvgF,TemperatureLowF,DewpointHighF,DewpointAvgF,DewpointLowF,HumidityHigh,HumidityAvg,HumidityLow,PressureMaxIn,PressureMinIn,WindSpeedMaxMPH,WindSpeedAvgMPH,GustSpeedMaxMPH,PrecipitationSumIn
2013-1-1,41.8,35.2,31.0,39.1,33.4,29.0,96,93,90,30.03,29.88,5,0,5,0.00
2013-1-2,39.4,32.0,28.4,37.4,30.3,26.6,96,93,91,29.89,29.72,3,0,3,0.00
2013-1-3,38.9,32.0,26.1,36.5,30.1,24.3,95,93,89,29.73,29.62,3,0,3,0.14
2013-1-4,47.2,41.0,35.8,45.6,39.7,34.5,97,95,93,29.81,29.68,5,0,5,0.02
2013-1-5,44.5,41.2,38.7,43.1,40.0,36.9,96,95,94,29.72,29.63,4,0,4,0.06
2013-1-6,43.9,41.4,38.7,41.3,39.7,37.4,96,94,90,29.69,29.49,6,1,6,0.06
2013-1-7,51.7,45.9,41.4,48.7,44.0,40.1,97,93,84,29.68,29.32,12,1,12,0.03
2013-1-8,50.0,45.2,40.3,48.9,43.7,38.6,97,94,88,29.68,29.23,16,2,16,1.03
2013-1-9,48.8,41.9,37.1,47.7,40.6,35.6,96,95,94,29.47,29.20,10,1,10,0.74
2013-1-10,38.3,35.7,33.1,36.7,34.2,31.5,96,94,92,29.66,29.47,5,0,5,0.03
2013-1-11,40.0,32.9,28.4,31.4,28.9,25.9,95,85,63,29.86,29.65,7,1,7,0.00
2013-1-12,38.5,30.8,25.7,33.6,27.9,23.5,94,89,77,29.97,29.84,8,0,8,0.00
2013-1-13,38.0,31.8,28.3,33.4,29.1,26.0,92,89,83,30.02,29.96,3,0,3,0.01
2013-1-14,39.1,32.1,27.2,34.7,29.5,25.1,93,90,85,30.10,29.98,2,0,2,0.00
2013-1-15,37.3,33.1,29.2,35.1,31.0,26.9,93,92,91,30.23,30.09,2,0,2,0.00
2013-1-16,41.6,32.0,26.8,39.9,29.9,24.9,95,92,88,30.21,30.05,3,0,3,0.00
2013-1-17,37.1,33.3,28.8,35.5,31.6,27.0,95,94,93,30.05,29.81,2,0,2,0.00
2013-1-18,37.3,35.2,32.2,35.9,33.8,30.7,96,95,94,29.87,29.79,4,0,4,0.00
2013-1-19,40.7,37.6,35.6,38.8,36.0,34.2,95,94,92,29.91,29.86,4,0,4,0.00
2013-1-20,44.3,38.1,31.7,41.6,36.2,29.7,95,93,89,29.92,29.80,4,0,4,0.00
2013-1-21,38.5,36.6,33.3,36.7,35.1,31.5,95,94,94,29.81,29.66,3,0,3,0.00
2013-1-22,38.9,34.7,31.0,37.1,33.2,29.4,95,94,93,29.67,29.44,2,0,2,0.00
2013-1-23,41.9,39.6,36.0,40.7,38.3,34.7,96,95,94,29.66,29.38,5,0,5,0.33
2013-1-24,44.1,40.9,39.1,42.6,39.7,37.5,96,95,94,29.73,29.57,2,0,2,0.20
2013-1-25,50.6,43.5,38.2,47.4,41.7,36.3,97,93,85,29.59,29.44,5,0,5,0.01
2013-1-26,44.8,40.9,38.2,42.8,39.1,36.5,95,93,90,29.56,29.40,6,0,6,0.16
2013-1-27,42.3,38.3,32.0,39.9,36.4,30.4,96,93,89,29.58,29.51,7,0,7,0.00
2013-1-28,41.6,37.9,33.8,40.2,36.4,32.2,95,94,93,29.61,29.53,2,0,2,0.13
2013-1-29,47.0,42.4,38.7,45.6,41.1,37.3,96,95,94,29.87,29.61,3,0,3,0.13
2013-1-30,49.7,45.7,43.6,48.0,44.2,42.2,96,95,93,29.91,29.84,1,0,1,0.02
2013-1-31,55.4,46.5,44.6,49.3,44.6,42.8,96,93,78,29.93,29.80,9,1,9,0.03
2013-2-1,48.6,44.6,37.1,46.0,42.7,35.5,95,93,89,29.95,29.86,4,0,4,0.00
2013-2-2,45.2,41.2,34.9,43.1,39.5,33.3,96,94,91,29.92,29.78,3,0,3,0.00
2013-2-3,50.4,44.0,40.1,46.6,42.0,38.3,95,93,84,29.83,29.73,3,0,4,0.01
2013-2-4,51.3,45.5,42.8,45.6,42.8,41.2,95,91,79,29.74,29.41,5,0,5,0.00
2013-2-5,49.0,44.6,42.7,46.9,42.6,40.8,95,93,87,29.45,29.35,11,2,11,0.40
2013-2-6,46.4,43.4,41.6,44.4,41.7,39.7,95,94,91,29.57,29.31,10,1,10,0.37
2013-2-7,53.5,41.2,32.2,45.5,37.9,30.2,96,88,68,29.72,29.31,10,1,10,0.09
2013-2-8,48.2,36.9,29.9,44.5,34.7,28.1,94,92,82,29.84,29.72,1,0,1,0.03
2013-2-9,46.8,41.2,36.2,43.5,39.1,34.6,95,92,87,29.87,29.79,0,0,0,0.03
2013-2-10,42.8,41.4,40.5,41.2,39.9,39.0,95,94,93,29.91,29.85,0,0,0,0.00
2013-2-11,47.3,42.7,39.1,43.4,40.4,37.4,95,92,80,29.88,29.85,0,0,0,0.03
2013-2-12,51.5,45.7,41.8,47.1,43.1,39.9,95,91,83,29.93,29.78,0,0,0,0.00
2013-2-13,48.8,45.8,43.7,45.5,43.3,41.6,93,91,87,30.02,29.82,0,0,0,0.00
2013-2-14,47.5,44.8,42.3,45.6,42.8,40.1,93,93,91,30.09,30.01,0,0,0,0.00
2013-2-15,64.8,46.9,37.3,54.1,43.2,34.6,94,87,62,30.08,29.72,0,0,0,0.00
2013-2-16,61.9,45.1,36.4,51.5,41.5,34.2,96,88,65,29.72,29.64,0,0,0,0.01
2013-2-17,46.3,41.0,37.3,41.9,37.9,34.6,93,89,81,29.77,29.63,0,0,0,0.01
2013-2-18,47.2,40.3,35.6,39.9,36.5,33.5,93,87,72,29.64,29.30,0,0,0,0.02
2013-2-19,54.7,40.8,32.8,46.8,37.0,29.9,94,86,70,29.54,29.27,0,0,0,0.04
2013-2-20,45.2,38.8,33.5,40.0,36.0,30.8,93,90,81,29.57,29.51,0,0,0,0.07
2013-2-21,46.6,41.2,37.4,40.3,38.1,35.3,94,89,77,29.60,29.52,0,0,0,0.01
2013-2-22,47.9,41.7,37.4,44.8,38.3,32.8,95,88,74,29.56,29.18,0,0,0,0.43
2013-2-23,52.0,39.4,30.4,45.4,35.3,28.2,94,86,68,29.89,29.41,0,0,0,0.01
2013-2-24,44.3,41.0,36.5,41.4,38.2,33.6,93,90,84,29.89,29.47,0,0,0,0.12
2013-2-25,60.1,42.2,31.9,41.0,34.9,27.5,95,78,38,29.83,29.38,0,0,0,0.11
2013-2-26,46.4,38.6,30.4,38.8,34.4,27.1,93,85,68,29.86,29.71,0,0,0,0.07
2013-2-27,49.0,42.7,38.0,43.5,39.7,35.4,93,89,76,29.82,29.72,0,0,0,0.10
2013-2-28,53.8,46.8,41.6,50.0,44.4,39.7,94,92,85,29.84,29.71,0,0,0,0.35
2013-3-1,55.6,51.9,49.3,51.2,48.6,46.7,95,88,83,29.87,29.79,0,0,0,0.00
2013-3-2,56.9,49.7,40.7,49.9,45.5,37.7,91,85,75,29.80,29.57,0,0,0,0.09
2013-3-3,58.7,41.6,32.8,47.5,36.9,29.6,94,84,46,29.84,29.72,0,0,0,0.00
2013-3-4,61.4,40.4,30.6,46.9,33.0,28.1,93,77,45,29.83,29.46,0,0,0,0.00
2013-3-5,50.4,41.4,34.6,42.4,37.0,30.4,90,85,67,29.47,29.26,0,0,0,0.02
2013-3-6,44.1,41.7,39.2,41.4,39.3,36.5,93,91,90,29.42,29.12,0,0,0,0.33
2013-3-7,61.9,44.8,37.4,52.0,41.1,34.6,94,87,58,29.62,29.42,0,0,0,0.05
2013-3-8,64.1,42.4,33.5,50.0,37.1,30.4,94,83,49,29.77,29.61,6,0,6,0.00
2013-3-9,69.1,41.5,31.0,52.0,36.1,28.0,93,82,48,30.03,29.77,0,0,0,0.00
2013-3-10,47.5,41.8,34.2,42.9,38.6,31.0,91,88,82,30.02,29.95,2,0,2,0.00
2013-3-11,50.2,45.4,41.9,45.4,42.4,39.7,94,89,81,29.97,29.67,3,0,3,0.06
2013-3-12,58.7,50.5,45.7,51.8,47.5,44.1,95,89,73,29.67,29.57,12,3,12,0.05
2013-3-13,53.8,51.1,49.0,49.5,47.6,46.0,93,88,82,29.71,29.61,11,3,11,0.00
2013-3-14,61.9,50.9,47.7,50.1,45.8,43.8,94,83,56,29.66,29.55,14,1,14,0.02
2013-3-15,65.2,51.3,44.6,51.6,46.4,42.8,94,84,59,29.72,29.65,11,1,11,0.01
2013-3-16,59.4,46.8,37.8,47.5,40.0,32.2,91,78,49,29.66,29.39,14,2,14,0.02
2013-3-17,54.4,39.9,31.3,39.8,34.2,28.3,90,80,55,29.70,29.50,8,0,8,0.02
2013-3-18,67.5,44.0,35.6,47.1,36.6,30.8,89,76,41,29.77,29.61,10,1,10,0.00
2013-3-19,55.6,41.0,32.8,42.2,35.9,29.0,90,83,51,29.76,29.13,6,0,6,0.77
2013-3-20,59.8,46.8,37.1,48.5,40.9,31.1,96,81,55,29.53,28.89,16,3,16,1.10
2013-3-21,55.3,39.6,33.1,42.9,33.9,29.3,89,81,59,29.73,29.53,8,1,8,0.07
2013-3-22,59.6,40.1,33.1,46.0,33.9,29.4,91,80,43,29.90,29.73,5,0,9,0.01
2013-3-23,59.8,40.6,33.5,44.7,33.6,29.0,90,77,42,29.92,29.82,4,0,4,0.00
2013-3-24,55.3,41.0,30.6,40.7,33.2,27.2,90,75,45,29.83,29.66,4,0,4,0.00
2013-3-25,74.5,46.1,31.3,44.2,34.8,27.9,91,69,28,29.66,29.48,5,0,5,0.00
2013-3-26,61.4,49.8,42.5,45.4,40.4,36.4,83,71,51,29.55,29.50,5,0,5,0.00
2013-3-27,57.8,49.2,42.7,47.7,42.9,38.4,87,79,62,29.53,29.47,4,0,4,0.00
2013-3-28,67.3,49.7,41.9,56.2,45.4,38.2,92,85,63,29.69,29.53,5,0,5,0.26
2013-3-29,76.0,51.4,41.0,57.6,44.6,38.3,93,79,44,29.78,29.68,5,1,5,0.01
2013-3-30,84.1,51.1,35.6,54.7,41.2,32.7,94,72,30,29.80,29.61,10,1,10,0.00
2013-3-31,66.2,51.5,39.2,48.3,42.0,34.8,90,71,50,29.61,29.46,6,1,6,0.00
2013-4-1,60.7,49.7,41.2,50.9,43.5,37.0,90,80,61,29.67,29.50,6,1,6,0.00
2013-4-2,58.5,48.9,41.6,48.2,43.3,37.8,91,81,65,29.72,29.67,6,1,6,0.00
2013-4-3,60.5,50.8,43.6,48.7,44.4,39.7,90,79,60,29.73,29.49,5,0,5,0.00
2013-4-4,52.9,50.0,46.8,51.3,47.1,42.9,95,90,82,29.50,29.16,14,1,14,0.61
2013-4-5,55.4,51.0,47.9,50.3,47.9,45.5,94,89,78,29.38,29.23,13,2,13,0.60
2013-4-6,55.3,48.6,44.6,47.3,44.3,41.3,95,85,70,29.43,29.20,16,2,16,0.31
2013-4-7,47.5,44.2,40.1,45.1,41.9,38.0,93,91,88,29.42,29.06,6,0,6,0.44
2013-4-8,53.6,47.0,41.8,48.7,44.2,39.9,94,90,78,29.79,29.42,4,0,4,0.03
2013-4-9,55.1,47.7,41.0,46.6,42.8,38.8,93,83,67,29.87,29.70,6,1,6,0.00
2013-4-10,58.9,51.2,46.4,53.9,46.5,42.2,94,84,66,29.77,29.45,8,1,8,0.35
2013-4-11,52.6,46.9,42.5,45.4,41.6,39.3,92,82,64,29.83,29.72,5,0,5,0.00
2013-4-12,46.4,43.9,41.0,42.4,40.3,37.7,93,87,77,29.72,29.19,9,1,9,0.18
2013-4-13,53.8,43.0,35.1,44.5,39.1,32.7,93,86,65,29.53,29.26,8,1,8,0.18
2013-4-14,53.8,44.0,38.2,42.9,38.6,34.1,93,82,58,29.54,29.46,7,1,7,0.01
2013-4-15,56.7,44.7,34.7,43.2,37.2,31.0,91,76,54,29.71,29.47,0,0,0,0.00
2013-4-16,58.9,45.6,34.4,42.3,35.1,28.2,90,69,33,29.93,29.71,0,0,0,0.00
2013-4-17,59.2,47.0,36.2,44.7,38.1,31.1,85,72,48,29.97,29.92,0,0,0,0.00
2013-4-18,52.2,47.5,41.4,46.5,42.1,35.9,87,82,77,29.97,29.70,0,0,0,0.00
2013-4-19,55.3,51.2,49.1,51.8,48.1,45.5,92,89,87,29.71,29.58,0,0,0,0.38
2013-4-20,55.3,49.5,46.1,51.1,46.6,43.8,93,90,80,29.80,29.71,0,0,0,0.03
2013-4-21,48.6,45.5,40.3,45.5,42.9,37.4,92,90,86,29.90,29.75,0,0,0,0.11
2013-4-22,61.6,46.5,34.2,40.2,31.6,19.9,94,62,23,30.05,29.90,0,0,0,0.01
2013-4-23,63.0,47.5,33.1,40.1,31.9,25.3,82,58,27,29.96,29.78,0,0,0,0.00
2013-4-24,68.6,51.7,36.9,44.7,37.2,31.1,85,61,31,29.86,29.59,0,0,0,0.00
2013-4-25,72.9,54.9,40.1,46.0,40.5,34.1,83,61,33,29.68,29.58,0,0,0,0.00
2013-4-26,68.4,53.6,43.0,51.8,44.8,37.9,88,73,50,29.79,29.68,0,0,0,0.00
2013-4-27,58.7,53.2,49.0,48.6,45.6,43.0,84,76,64,29.73,29.67,0,0,0,0.00
2013-4-28,57.6,52.6,47.7,50.1,45.2,41.4,87,76,58,29.74,29.46,0,0,0,0.01
2013-4-29,60.1,49.9,44.1,45.1,40.6,36.3,88,72,45,29.68,29.44,0,0,0,0.00
2013-4-30,52.7,45.9,37.3,38.7,35.9,31.7,84,69,52,29.97,29.68,0,0,0,0.00
2013-5-1,64.3,48.5,34.9,39.3,33.4,26.4,87,60,25,30.10,29.97,0,0,0,0.00
2013-5-2,65.9,52.8,39.1,43.0,35.8,30.0,83,55,29,30.08,29.90,0,0,0,0.00
2013-5-3,73.6,59.4,48.6,47.2,42.4,38.3,74,55,32,29.92,29.76,0,0,0,0.00
2013-5-4,79.4,63.2,47.5,48.3,41.3,31.1,79,49,19,29.77,29.55,0,0,0,0.00
2013-5-5,84.2,64.7,47.5,50.1,43.7,36.5,80,50,21,29.55,29.32,0,0,0,0.00
2013-5-6,86.4,66.3,50.0,53.0,47.5,41.7,79,54,29,29.40,29.30,0,0,0,0.00
2013-5-7,74.7,59.8,50.8,54.9,49.6,44.6,86,70,48,29.54,29.36,0,0,0,0.00
2013-5-8,68.4,56.8,49.7,54.2,49.2,44.0,85,76,58,29.68,29.53,0,0,0,0.00
2013-5-9,73.6,56.9,47.5,56.0,49.2,42.6,90,77,47,29.76,29.66,0,0,0,0.00
2013-5-10,76.9,60.5,46.4,57.4,50.2,41.8,89,70,47,29.74,29.65,0,0,0,0.00
2013-5-11,81.5,63.4,53.3,57.5,51.5,47.5,84,67,40,29.71,29.53,0,0,0,0.00
2013-5-12,67.9,61.3,57.4,57.1,54.5,49.8,91,79,65,29.61,29.54,0,0,0,0.02
2013-5-13,64.3,57.0,48.4,54.8,48.7,38.5,86,74,54,29.70,29.47,0,0,0,0.05
2013-5-14,64.3,54.0,45.2,46.5,43.2,40.1,84,68,47,29.75,29.65,0,0,0,0.00
2013-5-15,63.9,53.8,45.2,51.2,45.7,39.6,86,75,53,29.66,29.54,0,0,0,0.05
2013-5-16,70.2,59.1,51.8,53.0,50.2,46.3,89,74,46,29.54,29.41,0,0,0,0.00
2013-5-17,66.8,57.7,52.2,52.0,49.2,45.8,86,74,52,29.58,29.47,0,0,0,0.03
2013-5-18,61.0,55.2,49.9,49.2,47.1,44.6,83,75,61,29.81,29.58,0,0,0,0.00
2013-5-19,63.4,55.6,49.9,51.8,48.7,44.6,88,78,63,29.93,29.80,0,0,0,0.00
2013-5-20,68.8,55.8,45.7,53.2,47.3,41.2,88,74,51,29.89,29.44,0,0,0,0.01
2013-5-21,53.8,49.9,46.8,50.3,46.4,43.5,92,88,82,29.45,29.31,0,0,0,0.26
2013-5-22,54.4,49.0,46.3,50.9,46.2,43.7,92,90,86,29.46,29.38,0,0,0,0.00
2013-5-23,55.8,48.7,44.6,48.3,44.9,42.2,92,87,71,29.54,29.45,0,0,0,0.22
2013-5-24,63.7,53.1,45.4,50.1,46.7,42.9,92,80,54,29.57,29.50,0,0,0,0.00
2013-5-25,64.1,54.3,47.7,49.4,47.0,43.4,89,77,57,29.57,29.50,0,0,0,0.00
2013-5-26,64.3,54.8,49.7,56.2,50.1,46.4,91,84,70,29.52,29.48,0,0,0,0.00
2013-5-27,59.0,54.1,50.4,56.7,50.8,46.1,92,89,82,29.49,29.23,0,0,0,0.00
2013-5-28,65.9,56.3,50.8,53.7,49.1,45.9,90,77,57,29.44,29.29,0,0,0,0.00
2013-5-29,61.4,52.7,50.0,53.5,48.0,44.0,90,85,55,29.92,29.26,0,0,0,0.11
2013-5-30,63.2,53.6,46.6,53.5,46.8,41.8,87,78,62,30.20,29.92,0,0,0,0.06
2013-5-31,66.4,55.4,48.2,49.3,46.4,40.7,89,73,47,30.30,30.20,0,0,0,0.00
2013-6-1,70.6,58.9,49.5,52.4,48.2,44.2,87,69,46,30.21,30.02,0,0,0,0.00
2013-6-2,66.6,59.3,52.9,54.8,51.1,47.4,88,75,61,30.06,30.01,0,0,0,0.04
2013-6-3,73.1,58.3,47.9,58.1,50.9,43.9,91,78,55,30.08,30.02,0,0,0,0.00
2013-6-4,79.0,62.0,47.2,55.7,49.9,43.0,92,67,39,30.09,29.99,0,0,0,0.00
2013-6-5,79.0,63.8,51.7,58.9,52.7,45.9,84,68,46,30.07,30.00,0,0,0,0.00
2013-6-6,79.2,64.1,52.0,56.6,52.3,47.4,89,68,41,30.02,29.97,0,0,0,0.00
2013-6-7,65.2,60.2,54.9,54.5,51.3,47.1,83,73,62,30.11,29.98,0,0,0,0.00
2013-6-8,68.4,59.4,54.4,52.8,50.0,47.0,78,71,54,30.14,30.06,0,0,0,0.00
2013-6-9,63.9,56.8,50.9,53.1,49.1,45.2,82,75,65,30.08,29.98,0,0,0,0.00
2013-6-10,68.8,57.8,48.6,51.7,48.1,43.9,85,71,48,29.99,29.83,0,0,0,0.00
2013-6-11,63.7,56.2,51.1,55.1,48.3,44.2,87,75,55,30.05,29.89,0,0,0,0.09
2013-6-12,66.1,55.0,44.6,53.0,46.6,40.4,90,74,51,30.10,30.04,0,0,0,0.01
2013-6-13,69.5,58.9,52.7,52.3,49.7,46.7,87,72,50,30.16,30.09,0,0,0,0.00
2013-6-14,63.9,57.2,51.8,52.3,49.7,46.9,85,76,63,30.18,30.02,0,0,0,0.00
2013-6-15,74.9,60.9,47.2,55.3,50.1,42.8,92,69,45,30.02,29.88,0,0,0,0.00
2013-6-16,76.0,61.7,50.8,58.8,52.6,45.5,86,73,52,30.04,29.95,0,0,0,0.00
2013-6-17,79.9,62.2,51.5,56.5,51.3,45.3,89,70,32,30.05,29.86,0,0,0,0.04
2013-6-18,75.6,62.9,54.7,53.3,49.7,45.6,88,65,38,29.92,29.84,0,0,0,0.00
2013-6-19,65.5,58.8,52.0,56.0,51.2,46.5,84,76,59,29.95,29.86,0,0,0,0.02
2013-6-20,62.6,57.4,54.0,55.4,52.2,49.7,92,83,70,30.05,29.89,0,0,0,0.12
2013-6-21,68.4,59.4,53.8,56.5,52.9,49.6,92,80,57,30.11,30.04,0,0,0,0.00
2013-6-22,78.8,62.9,49.9,58.5,52.4,45.8,89,71,41,30.08,29.82,0,0,0,0.00
2013-6-23,71.3,63.4,57.6,62.6,57.9,51.5,89,82,69,29.82,29.56,0,0,0,0.20
2013-6-24,70.6,62.5,57.2,59.4,56.1,52.6,93,80,58,29.65,29.53,0,0,0,0.00
2013-6-25,74.7,61.3,55.8,60.3,55.7,52.6,92,83,56,29.80,29.63,0,0,0,0.65
2013-6-26,68.6,61.0,55.8,62.4,57.3,53.2,93,88,76,30.02,29.79,0,0,0,0.24
2013-6-27,67.3,62.3,58.0,64.8,59.7,54.7,93,91,85,30.15,30.00,0,0,0,0.28
2013-6-28,88.0,70.4,58.7,69.5,62.1,56.5,95,77,47,30.15,29.99,0,0,0,0.00
2013-6-29,83.5,71.0,62.3,67.1,62.1,58.6,90,75,53,30.06,29.96,0,0,0,0.00
2013-6-30,90.7,73.2,58.1,66.3,60.9,54.2,89,68,34,29.98,29.81,0,0,0,0.00
2013-7-1,85.9,73.0,62.6,68.8,62.3,57.3,85,70,50,29.99,29.87,0,0,0,0.00
2013-7-2,82.1,69.1,58.7,64.4,58.6,54.5,89,71,44,30.06,29.99,0,0,0,0.00
2013-7-3,79.2,66.8,59.8,60.4,53.4,46.2,74,63,40,30.11,30.00,0,0,0,0.05
2013-7-4,70.2,62.3,56.9,57.1,53.9,50.8,82,74,61,30.08,29.98,0,0,0,0.00
2013-7-5,73.3,62.7,52.6,59.8,54.5,48.2,87,75,59,29.99,29.91,0,0,0,0.00
2013-7-6,79.6,64.9,53.1,58.5,53.9,49.0,90,70,42,29.93,29.83,0,0,0,0.00
2013-7-7,80.1,65.6,54.4,62.6,56.4,49.0,88,73,51,29.90,29.83,0,0,0,0.00
2013-7-8,80.1,65.9,56.7,62.6,56.6,51.8,87,73,48,30.05,29.90,0,0,0,0.00
2013-7-9,84.2,68.1,55.8,62.1,57.1,50.9,89,70,45,30.07,29.96,0,0,0,0.00
2013-7-10,70.6,62.1,55.3,59.0,54.0,49.5,86,75,63,30.02,29.91,0,0,0,0.00
2013-7-11,67.9,60.7,56.2,52.9,50.2,48.4,78,69,53,30.04,29.94,0,0,0,0.00
2013-7-12,67.0,59.3,52.7,55.0,50.6,46.6,82,73,57,30.06,29.96,0,0,0,0.00
2013-7-13,77.9,61.5,48.2,55.1,47.4,39.6,89,63,29,30.15,30.06,0,0,0,0.00
2013-7-14,81.9,64.5,50.0,56.1,48.9,43.4,84,60,35,30.09,29.95,0,0,0,0.00
2013-7-15,82.3,66.8,51.3,53.6,46.9,40.3,83,53,26,30.00,29.85,0,0,0,0.00
2013-7-16,87.5,71.0,54.7,55.3,49.4,43.3,76,49,24,29.86,29.77,0,0,0,0.00
2013-7-17,74.5,66.5,60.1,58.9,55.9,52.4,83,69,55,30.14,29.82,0,0,0,0.01
2013-7-18,78.1,65.6,57.6,59.8,55.5,51.3,82,71,51,30.18,30.08,0,0,0,0.00
2013-7-19,81.0,64.9,53.3,61.8,55.5,48.4,89,73,50,30.12,29.99,0,0,0,0.00
2013-7-20,78.3,63.8,55.1,62.3,56.0,50.0,88,77,56,30.04,29.92,0,0,0,0.00
2013-7-21,79.6,64.5,55.4,63.2,56.4,50.1,88,76,53,29.93,29.86,0,0,0,0.00
2013-7-22,81.4,66.4,58.0,63.1,57.5,54.1,89,74,49,30.01,29.89,0,0,0,0.00
2013-7-23,85.5,67.9,54.5,63.2,55.4,49.8,88,67,37,30.02,29.93,0,0,0,0.00
2013-7-24,85.3,68.1,54.9,60.3,54.6,49.1,89,64,37,30.01,29.95,0,0,0,0.00
2013-7-25,84.8,67.4,53.3,58.5,53.3,47.5,84,63,37,30.05,29.99,0,0,0,0.00
2013-7-26,84.8,67.3,54.2,59.4,53.2,48.2,84,63,34,30.10,30.02,0,0,0,0.00
2013-7-27,78.8,64.1,52.4,55.5,51.1,45.9,85,65,40,30.11,29.95,0,0,0,0.00
2013-7-28,73.4,61.3,54.4,58.0,52.4,47.8,87,73,56,29.97,29.90,0,0,0,0.00
2013-7-29,78.3,63.1,51.5,58.6,52.7,46.8,88,70,47,29.96,29.90,0,0,0,0.00
2013-7-30,80.3,63.9,54.0,62.3,55.1,48.6,88,74,49,30.08,29.96,0,0,0,0.00
2013-7-31,74.2,62.3,55.1,63.6,56.2,50.0,91,81,66,30.07,29.94,0,0,0,0.00
2013-8-1,70.6,63.0,56.5,59.2,55.6,52.7,88,77,63,30.01,29.96,0,0,0,0.00
2013-8-2,62.1,59.9,57.2,58.1,55.7,52.4,91,86,79,30.08,29.99,0,0,0,0.07
2013-8-3,72.4,63.0,58.3,61.3,57.6,54.2,92,83,65,30.08,30.01,0,0,0,0.00
2013-8-4,81.0,65.4,52.9,62.2,56.6,49.8,93,75,51,30.02,29.90,0,0,0,0.00
2013-8-5,84.1,67.9,56.0,63.3,57.2,51.1,90,70,45,29.96,29.88,0,0,0,0.00
2013-8-6,85.7,67.5,53.6,59.8,54.4,48.3,89,65,39,29.96,29.87,0,0,0,0.00
2013-8-7,85.7,67.8,54.7,59.9,54.5,48.9,87,65,40,29.96,29.90,0,0,0,0.00
2013-8-8,83.7,66.9,56.2,62.8,56.1,50.7,87,70,47,29.99,29.89,0,0,0,0.00
2013-8-9,83.7,68.0,55.3,60.9,55.7,50.1,87,67,42,29.91,29.79,0,0,0,0.00
2013-8-10,78.8,66.5,59.4,64.8,59.6,55.9,90,79,58,29.96,29.83,0,0,0,0.14
2013-8-11,75.2,63.9,58.3,61.2,56.7,53.8,88,78,58,30.01,29.94,0,0,0,0.00
2013-8-12,79.0,65.8,58.9,59.3,55.7,53.3,84,71,42,30.02,29.95,0,0,0,0.00
2013-8-13,81.0,65.6,54.5,60.2,54.9,49.8,88,70,45,30.04,29.88,0,0,0,0.00
2013-8-14,79.6,64.4,55.1,61.5,55.8,49.7,89,75,41,29.90,29.85,0,0,0,0.09
2013-8-15,70.0,65.3,61.6,65.3,61.8,58.7,92,89,83,29.94,29.87,0,0,0,0.02
2013-8-16,84.2,69.3,61.6,66.1,60.7,54.7,93,76,42,29.95,29.89,0,0,0,0.00
2013-8-17,76.7,66.1,56.9,63.1,57.9,52.4,88,75,62,30.02,29.94,0,0,0,0.00
2013-8-18,74.9,65.3,60.1,62.6,57.2,53.9,87,76,60,30.07,30.02,0,0,0,0.00
2013-8-19,76.9,66.0,59.9,61.8,56.5,53.5,83,72,53,30.06,30.01,0,0,0,0.00
2013-8-20,77.2,65.0,56.7,55.5,50.5,44.6,82,61,34,30.11,30.02,0,0,0,0.00
2013-8-21,82.1,64.8,49.3,55.5,49.3,43.4,86,60,34,30.04,29.89,0,0,0,0.00
2013-8-22,81.0,66.0,52.0,58.8,52.4,45.1,81,63,41,29.90,29.76,0,0,0,0.00
2013-8-23,77.4,66.8,60.1,59.0,55.6,53.3,82,68,49,29.83,29.77,0,0,0,0.00
2013-8-24,72.4,63.7,57.2,60.0,56.7,51.3,89,78,60,29.86,29.80,0,0,0,0.04
2013-8-25,70.7,61.3,52.2,57.2,53.2,47.8,89,75,58,29.89,29.81,0,0,0,0.00
2013-8-26,75.2,62.7,55.4,59.5,54.3,50.6,87,75,44,29.90,29.79,0,0,0,0.04
2013-8-27,76.9,65.8,58.9,62.6,58.6,55.6,90,79,56,29.90,29.74,0,0,0,0.20
2013-8-28,77.6,66.8,59.4,65.3,60.6,56.3,93,82,57,29.84,29.77,0,0,0,0.13
2013-8-29,73.1,65.8,63.2,68.1,62.9,59.9,94,90,82,29.94,29.79,0,0,0,0.86
2013-8-30,76.3,65.2,57.1,61.5,57.8,53.0,93,78,52,30.07,29.93,0,0,0,0.00
2013-8-31,77.4,63.5,52.0,61.5,55.4,48.3,94,76,53,30.03,29.79,0,0,0,0.00
2013-9-1,81.7,65.2,54.7,64.3,56.7,51.0,92,76,46,29.83,29.73,0,0,0,0.00
2013-9-2,79.2,66.6,58.3,63.6,57.5,53.6,89,74,48,29.89,29.81,0,0,0,0.00
2013-9-3,72.2,63.5,58.7,65.0,59.2,53.3,91,86,76,29.98,29.88,0,0,0,0.38
2013-9-4,70.2,62.3,55.4,63.2,58.4,52.8,94,87,76,30.00,29.94,0,0,0,0.05
2013-9-5,66.2,62.0,59.0,62.2,59.5,56.7,95,92,85,29.99,29.87,0,0,0,0.24
2013-9-6,69.8,63.2,60.3,66.0,60.9,58.3,95,92,84,30.04,29.87,0,0,0,0.81
2013-9-7,70.7,62.4,56.7,63.4,58.8,54.4,95,88,75,30.04,29.96,0,0,0,0.00
2013-9-8,76.9,63.0,53.5,63.8,57.6,51.1,96,84,59,30.05,29.97,0,0,0,0.00
2013-9-9,76.7,62.6,53.6,64.4,57.2,51.0,93,83,63,30.01,29.92,0,0,0,0.00
2013-9-10,78.5,63.5,51.5,63.5,56.4,48.6,95,79,55,29.94,29.83,0,0,0,0.00
2013-9-11,86.9,68.5,55.8,66.1,59.2,52.3,93,74,44,29.89,29.82,0,0,0,0.00
2013-9-12,79.6,65.7,57.6,64.7,59.3,53.7,92,80,58,29.94,29.84,0,0,0,0.00
2013-9-13,67.7,62.5,58.3,62.6,58.9,54.8,92,88,82,29.90,29.81,0,0,0,0.00
2013-9-14,69.3,62.7,58.1,62.1,59.0,54.7,93,88,76,29.82,29.68,0,0,0,0.01
2013-9-15,64.3,59.6,56.0,61.7,57.5,53.4,95,92,89,29.75,29.64,0,0,0,0.21
2013-9-16,66.8,60.1,56.9,62.0,57.8,54.9,95,92,82,29.87,29.72,0,0,0,0.19
2013-9-17,62.5,58.0,54.2,57.4,55.0,51.8,94,90,74,29.87,29.80,0,0,0,0.02
2013-9-18,65.9,57.5,52.6,57.1,53.1,49.2,94,86,67,30.01,29.87,0,0,0,0.00
2013-9-19,73.1,58.6,47.5,55.6,51.2,45.0,94,78,48,29.98,29.69,0,0,0,0.00
2013-9-20,70.6,58.9,50.0,59.9,53.1,46.3,91,82,65,29.69,29.53,0,0,0,0.04
2013-9-21,65.7,57.8,52.2,57.6,53.4,49.6,93,85,69,29.65,29.58,0,0,0,0.00
2013-9-22,59.0,56.2,54.7,56.7,53.5,51.2,95,91,86,29.65,29.48,0,0,0,0.72
2013-9-23,63.9,55.3,52.2,56.5,51.9,49.1,94,88,75,29.89,29.65,0,0,0,0.03
2013-9-24,62.6,52.5,45.5,52.7,48.4,43.1,93,86,65,29.89,29.76,0,0,0,0.20
2013-9-25,58.9,52.2,48.8,51.8,48.3,45.5,93,87,72,29.96,29.79,0,0,0,0.04
2013-9-26,59.0,49.8,41.8,52.2,46.1,39.1,95,87,75,30.06,29.95,0,0,0,0.00
2013-9-27,57.1,53.0,46.8,53.5,50.4,44.1,94,91,87,30.04,29.76,0,0,0,0.02
2013-9-28,58.7,54.5,52.6,57.2,52.7,50.6,96,94,92,29.76,29.35,0,0,0,0.49
2013-9-29,52.9,52.9,52.9,50.0,50.0,50.0,90,90,90,29.46,29.46,0,0,0,0.00
2013-9-30,58.0,51.8,47.0,52.7,48.2,0.0,96,88,71,30.32,29.90,0,0,0,0.00
2013-10-1,57.6,50.4,46.3,49.9,46.8,44.1,94,88,69,30.52,30.30,0,0,0,0.00
2013-10-2,51.3,50.0,48.6,48.0,47.0,46.0,91,89,88,30.51,30.48,0,0,0,0.00
2013-11-8,50.9,45.7,39.2,47.8,43.5,37.4,96,92,86,30.56,30.47,0,0,0,0.00
2013-11-9,48.6,44.2,40.1,46.6,42.5,38.3,95,94,91,30.56,30.48,0,0,0,0.00
2013-11-10,49.5,46.4,44.5,46.5,44.0,42.0,95,91,85,30.56,30.51,0,0,0,0.00
2013-11-11,54.0,46.4,41.2,50.5,44.0,39.3,94,91,85,30.57,30.42,0,0,0,0.00
2013-11-12,55.6,50.8,43.6,53.7,49.0,41.4,96,94,92,30.75,30.42,0,0,0,0.00
2013-11-13,54.4,50.5,45.9,50.7,48.0,43.8,95,92,83,30.84,30.72,0,0,0,0.00
2013-11-14,50.4,47.1,41.8,48.4,45.4,39.9,94,94,92,30.72,30.46,0,0,0,0.00
2013-11-15,48.4,44.7,42.3,46.6,42.8,40.7,94,93,91,30.47,29.73,0,0,0,0.00
2013-11-16,47.3,41.2,34.2,43.0,38.3,32.2,95,90,82,30.17,29.75,0,0,0,0.00
2013-11-17,50.6,44.8,38.2,47.3,42.4,35.5,95,91,86,30.29,30.16,0,0,0,0.00
2013-11-18,49.5,47.0,44.3,48.3,45.5,42.4,96,94,92,30.29,30.02,0,0,0,0.00
2013-11-19,45.9,41.7,35.1,44.6,39.9,29.9,95,93,80,30.47,30.03,0,0,0,0.00
2013-11-20,41.6,35.2,31.9,33.7,30.8,28.4,92,84,67,30.90,30.47,0,0,0,0.00
2013-11-21,41.4,32.8,28.6,34.1,29.2,26.4,93,87,70,31.05,30.90,0,0,0,0.00
2013-11-22,43.7,34.3,29.5,37.1,30.9,26.7,94,87,74,31.04,30.85,0,0,0,0.00
2013-11-23,47.0,35.7,29.9,40.8,32.6,27.6,94,88,75,30.86,30.61,0,0,0,0.00
2013-11-24,45.0,36.2,31.3,43.1,34.3,29.1,95,93,91,30.65,30.56,0,0,0,0.00
2013-11-25,44.3,36.2,32.2,42.8,34.3,30.3,96,93,89,30.71,30.65,0,0,0,0.00
2013-11-26,46.4,39.0,31.1,44.0,36.9,29.3,95,92,90,30.67,30.49,0,0,0,0.00
2013-11-27,50.9,43.8,39.1,46.4,41.6,37.2,94,92,84,30.49,30.38,0,0,0,0.00
2013-12-3,38.7,34.5,30.6,24.6,21.6,18.0,74,60,44,30.70,30.57,0,0,0,0.00
2013-12-4,36.0,29.2,24.7,27.0,22.8,20.3,86,77,63,30.75,30.68,0,0,0,0.00
2013-12-5,33.8,27.9,22.7,28.5,23.6,18.8,88,84,79,30.72,30.58,0,0,0,0.00
2013-12-6,31.5,28.0,23.9,23.7,16.4,9.9,81,62,46,30.63,30.54,0,0,0,0.00
2013-12-7,29.7,24.5,18.9,14.0,11.8,9.2,69,58,44,30.81,30.63,0,0,0,0.00
2013-12-8,32.4,24.5,17.8,21.4,16.4,10.2,78,71,57,30.96,30.81,0,0,0,0.00
2013-12-9,32.2,27.2,19.3,25.0,21.4,13.4,82,79,73,30.97,30.88,0,0,0,0.00
2013-12-10,37.4,31.8,26.5,33.0,27.8,22.0,88,85,82,30.89,30.81,0,0,0,0.00
2013-12-11,37.6,31.7,27.2,34.9,28.8,24.1,92,89,87,30.81,30.56,0,0,0,0.00
2013-12-12,41.2,36.4,29.0,38.2,34.0,26.5,94,91,82,30.56,30.43,0,0,0,0.00
2013-12-13,46.1,41.8,38.2,44.5,40.1,36.5,95,94,92,30.81,30.50,0,0,0,0.00
2013-12-14,47.2,44.9,42.3,45.2,43.0,41.0,95,93,87,30.83,30.70,0,0,0,0.00
2013-12-15,53.5,47.5,44.5,49.2,45.1,42.3,94,91,84,30.85,30.70,0,0,0,0.00
2013-12-16,47.2,43.0,35.6,45.5,41.2,33.5,95,93,92,30.89,30.67,0,0,0,0.00
2013-12-17,42.1,40.2,36.4,40.5,38.6,34.5,95,94,93,30.67,30.51,0,0,0,0.00
2013-12-18,43.2,40.2,34.9,41.9,38.3,32.6,95,93,89,30.56,30.42,0,0,0,0.00
2013-12-19,40.0,36.2,33.5,33.3,27.6,21.8,91,71,56,30.74,30.56,0,0,0,0.00
2013-12-20,40.5,36.7,33.3,38.9,33.9,28.4,94,90,82,30.59,30.10,0,0,0,0.00
2013-12-21,43.0,41.7,40.5,41.2,40.1,38.6,94,94,93,30.57,30.25,0,0,0,0.00
2013-12-22,47.7,44.6,42.1,46.6,43.1,40.5,96,94,94,30.69,30.55,0,0,0,0.00
2013-12-23,52.6,46.3,34.9,48.6,43.5,32.5,95,90,73,30.91,30.51,0,0,0,0.00
2013-12-24,44.5,37.2,31.9,40.6,34.6,29.3,95,91,83,31.01,30.90,0,0,0,0.00
2013-12-25,40.9,35.4,31.0,38.7,33.3,28.7,94,92,91,30.93,30.79,0,0,0,0.00
2013-12-26,42.8,36.1,32.2,40.1,34.0,30.1,94,92,89,30.80,30.59,0,0,0,0.00
2013-12-27,43.6,38.4,32.2,42.2,36.8,30.2,96,94,92,30.77,30.48,0,0,0,0.00
2013-12-28,46.1,41.6,35.1,44.0,39.9,32.9,95,94,91,30.92,30.76,0,0,0,0.00
2013-12-29,44.3,39.7,35.1,42.4,37.9,33.2,95,93,92,30.87,30.71,0,0,0,0.00
2013-12-30,42.7,40.6,38.9,41.3,39.1,37.0,95,94,93,30.71,30.51,0,0,0,0.00
2013-12-31,45.0,41.2,36.7,43.7,39.8,35.1,95,95,94,30.77,30.57,0,0,0,0.00
2014-1-1,43.7,41.0,36.5,42.2,39.6,34.9,96,95,94,30.80,30.63,0,0,0,0.00
2014-1-2,51.8,45.4,41.0,45.0,42.4,39.7,95,90,68,30.64,30.28,0,0,0,0.00